This demonstration page uses our WeatherBlox Daily Observations layout. Learn more.

Left ArrowRight Arrow

36.19886, -115.1175

Hourly Observations for December 23, 2020

Temp ( °F °C ) Dew Point ( °F °C ) Humidity (%) Winds ( mph kmh ) Pressure ( in mb ) Visibility ( mi km ) Precip ( " mm )
12:53 am 00:53 Clear 55 12.8 6 -14.4 14 14 NNW 13 20 30.11 1020 10 16.0934 0 0
1:53 am 01:53 Clear 51 10.6 8 -13.3 17 17 ENE 7 11 30.14 1021 10 16.0934 0 0
2:53 am 02:53 Clear 50 10 11 -11.7 21 21 N 15 24 30.17 1022 10 16.0934 0 0
3:53 am 03:53 Clear 50 10 11 -11.7 21 21 NE 13 20 30.22 1023 10 16.0934 0 0
4:53 am 04:53 Clear 49 9.4 10 -12.2 21 21 NE 14 22 30.26 1025 10 16.0934 0 0
5:24 am 05:24 Clear 50 10 9 -12.8 19 19 N 14 22 30.25 1025 10 16.0934 0 0
5:53 am 05:53 Clear 48 8.9 8 -13.3 19 19 ENE 9 15 30.32 1027 10 16.0934 0 0
6:53 am 06:53 Sunny 47 8.3 7 -13.9 19 19 NNE 13 20 30.37 1028 10 16.0934 0 0
7:53 am 07:53 Sunny 47 8.3 7 -13.9 19 19 NE 12 19 30.41 1030 10 16.0934 0 0
8:53 am 08:53 Sunny 49 9.4 6 -14.4 17 17 VRB 7 11 30.44 1031 10 16.0934 0 0
9:53 am 09:53 Sunny 51 10.6 6 -14.4 16 16 NNW 14 22 30.45 1031 10 16.0934 0 0
10:53 am 10:53 Sunny 51 10.6 7 -13.9 17 17 NE 12 19 30.46 1031 10 16.0934 0 0
11:53 am 11:53 Sunny 53 11.7 4 -15.6 13 13 N 10 17 30.44 1031 10 16.0934 0 0
12:53 pm 12:53 Sunny 54 12.2 6 -14.4 14 14 NE 9 15 30.42 1030 10 16.0934 0 0
1:53 pm 13:53 Sunny 54 12.2 5 -15 14 14 Calm 30.43 1030 10 16.0934 0 0
2:53 pm 14:53 Sunny 54 12.2 4 -15.6 13 13 ENE 17 28 30.43 1031 10 16.0934 0 0
3:53 pm 15:53 Sunny 52 11.1 4 -15.6 14 14 ENE 8 13 30.43 1031 10 16.0934 0 0
4:53 pm 16:53 Clear 50 10 5 -15 16 16 ENE 6 9 30.45 1031 10 16.0934 0 0
5:53 pm 17:53 Clear 49 9.4 6 -14.4 17 17 ESE 3 6 30.49 1032 10 16.0934 0 0
6:53 pm 18:53 Clear 46 7.8 8 -13.3 21 21 WSW 3 6 30.51 1033 10 16.0934 0 0
7:53 pm 19:53 Clear 43 6.1 8 -13.3 24 24 NNW 8 13 30.54 1034 10 16.0934 0 0
8:53 pm 20:53 Clear 42 5.6 5 -15 21 21 NW 10 17 30.54 1034 10 16.0934 0 0
9:53 pm 21:53 Clear 40 4.4 6 -14.4 24 24 Calm 30.57 1035 10 16.0934 0 0
10:53 pm 22:53 Clear 40 4.4 8 -13.3 27 27 SW 3 6 30.59 1036 10 16.0934 0 0
11:53 pm 23:53 Clear 38 3.3 8 -13.3 29 29 NW 6 9 30.57 1035 10 16.0934 0 0

Powered by AerisWeather